Weather in Columbia

United States     39°13′14″N   76°51′34″W
temp.,
°C
wind,
m/s
gust,
m/s
humid.,
%
clouds,
%
prec.,
mm/h
press.,
hPa
HPBL,
m
28 june, tue
tue2823:00+21nnw512500 0.0 1018558
02:00+19nnw512505 0.0 1019535
05:00+17nnw310510 0.0 1020378
08:00+20nnw26490 0.0 1022351
11:00+23nnw45366 0.0 10231624
14:00+26nw3333100 0.0 10221814
17:00+26nw333533 0.0 10211795
20:00+23n014719 0.0 102215
29 june, wed
wed2923:00+20s235793 0.0 102383
02:00+19sw2357100 0.0 102381
05:00+18sw12597 0.0 102354
08:00+21sw24560 0.0 1024270
11:00+27ssw35360 0.0 10231047
14:00+30wsw463319 0.0 10222215
17:00+31nw34322 0.0 10202089
20:00+26se35502 0.0 1021232
30 june, thu
thu3023:00+23ese12710 0.1 102290
02:00+21nw11773 0.1 102249
05:00+20nnw23650 0.0 102267
08:00+23n24500 0.0 1023223
11:00+29n12350 0.0 10231170
14:00+33w24260 0.0 10212280
17:00+32wnw33280 0.0 10202079
20:00+29se25400 0.0 1020259
1 july, fri
fri123:00+25s27523 0.0 1021236
02:00+24sse146084 0.0 1020180
05:00+22ssw27740 0.0 1019231
08:00+24wsw35660 0.0 1019329
11:00+32sw34410 0.0 1018876
14:00+35ssw573195 0.0 10162991
17:00+37wsw5626100 0.0 10143062
20:00+30ssw144656 0.0 1015218
2 july, sat
sat223:00+25sw2774100 0.9 1016150
02:00+24sw2672100 0.9 1015218
05:00+22wsw1189100 2.0 101517
08:00+23ssw1284100 3.2 1016150
11:00+30wsw1151100 0.0 1016834
14:00+31nw434998 0.1 10161534
17:00+23e1194100 6.8 1015169
20:00+23e019045 7.8 1017268